DW6352 Weather Reports


time (UTC)temp
F
wind
direction
speed
knots
gust
knots
rain 1hr
in
rain 24hr
in
rain mn
in
humidity
%
barometer
mb
20260506193050 41 261 3.5 9.6 0.00 0.00 0.00 53 1015.9
20260506191549 41 290 4.3 10.4 0.00 0.00 0.00 52 1016.1
20260506190048 41 161 5.2 8.7 0.00 0.00 0.00 52 1016.0
20260506184547 41 264 5.2 9.6 0.00 0.00 0.00 51 1016.0
20260506183047 40 267 6.1 13.0 0.00 0.00 0.00 51 1016.1
20260506181546 40 277 8.7 12.2 0.00 0.00 0.00 53 1016.2
20260506180044 40 291 3.5 12.2 0.00 0.00 0.00 54 1016.3
20260506174554 40 306 4.3 10.4 0.00 0.00 0.00 54 1016.4
20260506173043 39 250 4.3 14.8 0.00 0.00 0.00 54 1016.4
20260506171541 40 259 5.2 13.9 0.00 0.00 0.00 53 1016.4
20260506170045 39 292 6.1 11.3 0.00 0.00 0.00 55 1016.6
20260506164539 39 298 9.6 14.8 0.00 0.00 0.00 55 1016.6
20260506163042 38 242 7.0 10.4 0.00 0.00 0.00 54 1016.6
20260506161538 38 327 7.0 12.2 0.00 0.00 0.00 54 1016.6
20260506160030 38 323 8.7 13.0 0.00 0.00 0.00 56 1016.6
20260506154527 38 309 7.0 14.8 0.00 0.00 0.00 57 1016.5
20260506153034 37 286 6.1 13.0 0.00 0.00 0.00 57 1016.5
20260506151520 37 317 8.7 14.8 0.00 0.00 0.00 58 1016.4
20260506150018 37 288 8.7 14.8 0.00 0.00 0.00 57 1016.4
20260506144529 37 284 6.1 12.2 0.00 0.00 0.00 58 1016.3
20260506143014 37 262 6.1 11.3 0.00 0.00 0.00 59 1016.3
20260506141511 37 296 6.1 10.4 0.00 0.00 0.00 60 1016.3
20260506140008 37 281 3.5 13.0 0.00 0.00 0.00 60 1016.1
20260506134506 37 300 6.1 11.3 0.00 0.00 0.00 60 1015.8
20260506133003 36 288 7.8 11.3 0.00 0.00 0.00 61 1015.7
20260506131600 36 311 4.3 12.2 0.00 0.00 0.00 61 1015.6
20260506130138 36 295 3.5 9.6 0.00 0.00 0.00 62 1015.5
20260506124555 36 285 4.3 9.6 0.00 0.00 0.00 63 1015.5
20260506123051 36 247 4.3 9.6 0.00 0.00 0.00 62 1015.4
20260506121553 36 305 5.2 10.4 0.00 0.00 0.00 62 1015.1
20260506120045 36 297 4.3 9.6 0.00 0.00 0.00 62 1015.0
20260506114543 36 257 2.6 7.0 0.00 0.00 0.00 62 1014.9
20260506113049 36 297 2.6 7.0 0.00 0.00 0.00 62 1014.8
20260506111538 36 311 2.6 6.1 0.00 0.00 0.00 62 1014.8
20260506110041 36 269 2.6 6.1 0.00 0.00 0.00 62 1014.6
20260506104533 36 281 1.7 5.2 0.00 0.00 0.00 61 1014.3
20260506103033 36 274 2.6 6.1 0.00 0.00 0.00 61 1014.2
20260506101535 36 293 2.6 7.8 0.00 0.00 0.00 60 1014.2
20260506100036 36 263 1.7 5.2 0.00 0.00 0.00 60 1014.2
20260506094532 36 302 2.6 7.0 0.00 0.00 0.00 60 1014.3
20260506093034 36 292 2.6 7.8 0.00 0.00 0.00 60 1014.2
20260506091528 36 303 4.3 8.7 0.00 0.00 0.00 60 1014.0
20260506090036 36 303 4.3 7.8 0.00 0.00 0.00 61 1013.9
20260506084532 36 317 3.5 9.6 0.00 0.00 0.00 62 1013.9
20260506083030 36 306 3.5 7.8 0.00 0.00 0.00 63 1014.0
20260506081522 35 277 5.2 9.6 0.00 0.00 0.00 64 1013.8
20260506073020 34 302 1.7 5.2 0.00 0.00 0.00 66 1013.7
20260506071519 33 296 1.7 5.2 0.00 0.00 0.00 67 1013.7
20260506061511 31 321 0.0 3.5 0.00 0.00 0.00 65 1013.7
20260506044556 36 321 0.9 5.2 0.00 0.00 0.00 61 1013.5
20260506043057 36 343 1.7 4.3 0.00 0.00 0.00 61 1013.4
20260506041551 37 351 1.7 7.8 0.00 0.00 0.00 60 1013.2
20260506040051 37 327 2.6 7.8 0.00 0.00 0.00 60 1013.2
20260506034609 38 330 2.6 8.7 0.00 0.00 0.00 60 1012.9
20260506033049 38 321 3.5 8.7 0.00 0.00 0.00 59 1012.9
20260506031552 39 351 2.6 5.2 0.00 0.00 0.00 58 1012.9
20260506030047 39 16 1.7 7.8 0.00 0.00 0.00 57 1012.8
20260506024551 40 347 4.3 9.6 0.00 0.00 0.00 55 1012.7
20260506023054 40 351 4.3 10.4 0.00 0.00 0.00 54 1012.5
20260506021543 41 329 6.1 10.4 0.00 0.00 0.00 53 1012.4
20260506020041 42 338 7.0 14.8 0.00 0.00 0.00 50 1012.1
20260506014538 42 292 6.1 12.2 0.00 0.00 0.00 47 1011.8
20260506013038 42 300 7.0 14.8 0.00 0.00 0.00 47 1011.6
20260506011542 43 342 11.3 14.8 0.00 0.00 0.00 47 1011.4
20260506010050 43 283 7.8 13.0 0.00 0.00 0.00 47 1011.2
20260506004532 43 300 7.0 15.6 0.00 0.00 0.00 46 1011.1
20260506003032 44 320 6.1 13.9 0.00 0.00 0.00 46 1010.9
20260506001531 44 300 7.8 20.0 0.00 0.00 0.00 45 1010.9
20260506000028 46 318 9.6 14.8 0.00 0.00 0.00 44 1010.6
20260505234527 46 290 11.3 18.2 0.00 0.00 0.00 43 1010.5
20260505233026 47 325 9.6 16.5 0.00 0.00 0.00 42 1010.3
20260505231526 47 325 6.1 14.8 0.00 0.00 0.00 43 1010.2
20260505230037 47 266 7.8 12.2 0.00 0.00 0.00 43 1010.2
20260505224526 47 317 8.7 19.1 0.00 0.00 0.00 41 1010.1
20260505223028 48 250 9.6 16.5 0.00 0.00 0.00 41 1009.9
20260505221525 47 252 7.8 15.6 0.00 0.00 0.00 42 1010.0
20260505220027 47 307 6.1 15.6 0.00 0.00 0.00 41 1010.0
20260505214524 47 304 7.8 15.6 0.00 0.00 0.00 39 1010.0
20260505213027 48 246 8.7 17.4 0.00 0.00 0.00 42 1010.0
20260505211523 47 286 7.0 14.8 0.00 0.00 0.00 41 1010.0
20260505210022 48 248 10.4 18.2 0.00 0.00 0.00 41 1010.1
20260505204522 47 308 10.4 16.5 0.00 0.00 0.00 40 1010.1
20260505203120 47 310 11.3 18.2 0.00 0.00 0.00 41 1010.2
20260505201519 46 249 8.7 17.4 0.00 0.00 0.00 43 1010.2
20260505200017 47 282 6.1 17.4 0.00 0.00 0.00 42 1010.3
20260505194516 46 296 8.7 16.5 0.00 0.00 0.00 45 1010.3